QPF
0.00 0.00 0.00 0.00 0.00 0.00 0.00 0.00 0.00 0.00 0.00 0.00 0.00 0.00 0.00 0.00 0.00 0.00 0.00 0.00 0.00 0.00 0.00 0.00 0.00 0.00 0.00 0.00 0.00 0.00 0.00 0.00 0.00 0.00 0.00 0.00 0.00 0.00 0.00 0.00 0.00 0.00 0.00
0.00 0.00 0.00 0.00 0.00 0.00 0.00 0.00 0.00 0.00 0.00 0.00 0.00 0.00 0.00 0.00 0.00 0.00 0.00 0.00 0.00 0.00 0.00 0.00 0.00 0.00 0.00 0.00 0.00 0.00 0.00 0.00 0.00 0.00 0.00 0.00 0.00 0.00 0.00 0.00 0.00 0.00 0.00
0.00 0.00 0.00 0.00 0.00 0.00 0.00 0.00 0.00 0.00 0.00 0.00 0.00 0.00 0.00 0.00 0.00 0.00 0.00 0.00 0.00 0.00 0.00 0.00 0.00 0.00 0.00 0.00 0.00 0.00 0.00 0.00 0.00 0.00 0.00 0.00 0.00 0.00 0.00 0.00 0.00 0.00 0.00
0.00 0.00 0.00 0.00 0.00 0.00 0.00 0.00 0.00 0.00 0.00 0.00 0.00 0.00 0.00 0.00 0.00 0.00 0.00 0.00 0.00 0.00 0.00 0.00 0.00 0.00 0.00 0.00 0.00 0.00 0.00 0.00 0.00 0.00 0.00 0.00 0.00 0.00 0.00 0.00 0.00 0.00 0.00
0.00 0.00 0.00 0.00 0.00 0.00 0.00 0.00 0.00 0.00 0.00 0.00 0.00 0.00 0.00 0.00 0.00 0.00 0.00 0.00 0.00 0.00 0.00 0.00 0.00 0.00 0.00 0.00 0.00 0.00 0.00 0.00 0.00 0.00 0.00 0.00 0.00 0.00 0.00 0.00 0.00 0.00 0.00
0.00 0.00 0.00 0.00 0.00 0.00 0.00 0.00 0.00 0.00 0.00 0.00 0.00 0.00 0.00 0.00 0.00 0.00 0.00 0.00 0.00 0.00 0.00 0.00 0.00 0.00 0.00 0.00 0.00 0.00 0.00 0.00 0.00 0.00 0.00 0.00 0.00 0.00 0.00 0.00 0.00 0.00 0.00
0.00 0.00 0.00 0.00 0.00 0.00 0.00 0.00 0.00 0.00 0.00 0.00 0.00 0.00 0.00 0.00 0.00 0.00 0.00 0.00 0.00 0.00 0.00 0.00 0.00 0.00 0.00 0.00 0.00 0.00 0.00 0.00 0.00 0.00 0.00 0.00 0.00 0.00 0.00 0.00 0.00 0.00 0.00
0.00 0.00 0.00 0.00 0.00 0.00 0.00 0.00 0.00 0.00 0.00 0.00 0.00 0.00 0.00 0.00 0.00 0.00 0.00 0.00 0.00 0.00 0.00 0.00 0.00 0.00 0.00 0.00 0.00 0.00 0.00 0.00 0.00 0.00 0.00 0.00 0.00 0.00 0.00 0.00 0.00 0.00 0.00
0.00 0.00 0.00 0.00 0.00 0.00 0.00 0.00 0.00 0.00 0.00 0.00 0.00 0.00 0.00 0.00 0.00 0.00 0.00 0.00 0.00 0.00 0.00 0.00 0.00 0.00 0.00 0.00 0.00 0.00 0.00 0.00 0.00 0.00 0.00 0.00 0.00 0.00 0.00 0.00 0.00 0.00 0.00
0.00 0.00 0.00 0.00 0.00 0.00 0.00 0.00 0.00 0.00 0.00 0.00 0.00 0.00 0.00 0.00 0.00 0.00 0.00 0.00 0.00 0.00 0.00 0.00 0.00 0.00 0.00 0.00 0.00 0.00 0.00 0.00 0.00 0.00 0.00 0.00 0.00 0.00 0.00 0.00 0.00 0.00 0.00
0.00 0.00 0.00 0.00 0.00 0.00 0.00 0.00 0.00 0.00 0.00 0.00 0.00 0.00 0.00 0.00 0.00 0.00 0.00 0.00 0.00 0.00 0.00 0.00 0.00 0.00 0.00 0.00 0.00 0.00 0.00 0.00 0.00 0.00 0.00 0.00 0.00 0.00 0.00 0.00 0.00 0.00 0.00
0.00 0.00 0.00 0.00 0.00 0.00 0.00 0.00 0.00 0.00 0.00 0.00 0.00 0.00 0.00 0.00 0.00 0.00 0.00 0.00 0.00 0.00 0.00 0.00 0.00 0.00 0.00 0.00 0.00 0.00 0.00 0.00 0.00 0.00 0.00 0.00 0.00 0.00 0.00 0.00 0.00 0.00 0.00
0.00 0.00 0.00 0.00 0.00 0.00 0.00 0.00 0.00 0.00 0.00 0.00 0.00 0.00 0.00 0.00 0.00 0.00 0.00 0.00 0.00 0.00 0.00 0.00 0.00 0.00 0.00 0.00 0.00 0.00 0.00 0.00 0.00 0.00 0.00 0.00 0.00 0.00 0.00 0.00 0.00 0.00 0.00
0.00 0.00 0.00 0.00 0.00 0.00 0.00 0.00 0.00 0.00 0.00 0.00 0.00 0.00 0.00 0.00 0.00 0.00 0.00 0.00 0.00 0.00 0.00 0.00 0.00 0.00 0.00 0.00 0.00 0.00 0.00 0.00 0.00 0.00 0.00 0.00 0.00 0.00 0.00 0.00 0.01 0.01 0.01
0.00 0.00 0.00 0.00 0.00 0.00 0.00 0.00 0.00 0.00 0.00 0.00 0.00 0.00 0.00 0.00 0.00 0.00 0.00 0.00 0.00 0.00 0.00 0.00 0.00 0.00 0.00 0.00 0.00 0.00 0.00 0.00 0.00 0.00 0.00 0.00 0.00 0.00 0.00 0.01 0.01 0.01 0.01
0.00 0.00 0.00 0.00 0.00 0.00 0.00 0.00 0.00 0.00 0.00 0.00 0.00 0.00 0.00 0.00 0.00 0.00 0.00 0.00 0.00 0.00 0.00 0.00 0.00 0.00 0.00 0.00 0.00 0.00 0.00 0.00 0.00 0.00 0.00 0.00 0.00 0.00 0.01 0.01 0.02 0.02 0.03
0.00 0.00 0.00 0.00 0.00 0.00 0.00 0.00 0.00 0.00 0.00 0.00 0.00 0.00 0.00 0.00 0.00 0.00 0.00 0.00 0.00 0.00 0.00 0.00 0.00 0.00 0.00 0.00 0.00 0.00 0.00 0.00 0.00 0.00 0.00 0.00 0.00 0.00 0.00 0.01 0.02 0.03 0.05
0.00 0.00 0.00 0.00 0.00 0.00 0.00 0.00 0.00 0.00 0.00 0.00 0.00 0.00 0.00 0.00 0.00 0.00 0.00 0.00 0.00 0.00 0.00 0.00 0.00 0.00 0.00 0.00 0.00 0.01 0.00 0.00 0.00 0.00 0.00 0.00 0.00 0.00 0.01 0.01 0.01 0.01 0.02
0.00 0.00 0.00 0.00 0.00 0.00 0.00 0.00 0.00 0.00 0.00 0.00 0.00 0.00 0.00 0.00 0.00 0.00 0.00 0.00 0.00 0.00 0.00 0.00 0.00 0.00 0.00 0.00 0.00 0.01 0.00 0.00 0.00 0.00 0.00 0.00 0.00 0.00 0.01 0.02 0.03 0.01 0.00
0.00 0.00 0.00 0.00 0.00 0.00 0.00 0.00 0.00 0.00 0.00 0.00 0.00 0.00 0.00 0.00 0.00 0.00 0.00 0.00 0.00 0.00 0.00 0.00 0.00 0.00 0.00 0.00 0.00 0.01 0.01 0.00 0.00 0.00 0.00 0.00 0.00 0.01 0.01 0.02 0.03 0.03 0.01
0.00 0.00 0.00 0.00 0.00 0.00 0.00 0.00 0.00 0.00 0.00 0.00 0.00 0.00 0.00 0.00 0.00 0.00 0.00 0.00 0.00 0.00 0.00 0.00 0.00 0.00 0.00 0.00 0.00 0.01 0.01 0.01 0.01 0.01 0.01 0.00 0.01 0.01 0.02 0.03 0.03 0.03 0.02
0.00 0.00 0.00 0.00 0.00 0.00 0.00 0.00 0.00 0.00 0.00 0.00 0.00 0.00 0.00 0.00 0.00 0.00 0.00 0.00 0.00 0.00 0.00 0.00 0.00 0.00 0.00 0.00 0.00 0.01 0.02 0.03 0.03 0.02 0.01 0.01 0.01 0.01 0.02 0.03 0.04 0.05 0.06
0.00 0.00 0.00 0.00 0.00 0.00 0.00 0.00 0.00 0.00 0.00 0.00 0.00 0.00 0.00 0.00 0.00 0.00 0.00 0.00 0.00 0.00 0.00 0.00 0.00 0.00 0.00 0.00 0.01 0.01 0.02 0.02 0.02 0.01 0.02 0.02 0.02 0.03 0.02 0.03 0.04 0.06 0.08
0.00 0.00 0.00 0.00 0.00 0.00 0.00 0.00 0.00 0.00 0.00 0.00 0.00 0.00 0.00 0.00 0.00 0.00 0.00 0.00 0.00 0.00 0.01 0.01 0.01 0.01 0.01 0.01 0.01 0.01 0.02 0.02 0.03 0.02 0.02 0.02 0.02 0.02 0.02 0.02 0.02 0.03 0.06
0.00 0.00 0.00 0.00 0.00 0.00 0.00 0.00 0.00 0.00 0.00 0.00 0.00 0.00 0.00 0.00 0.00 0.00 0.00 0.00 0.00 0.00 0.01 0.02 0.03 0.04 0.03 0.02 0.04 0.05 0.05 0.05 0.05 0.05 0.05 0.03 0.02 0.02 0.02 0.02 0.02 0.02 0.04
0.00 0.00 0.00 0.00 0.00 0.00 0.00 0.00 0.00 0.00 0.00 0.00 0.00 0.00 0.00 0.00 0.00 0.00 0.00 0.00 0.00 0.00 0.01 0.02 0.02 0.02 0.03 0.04 0.05 0.05 0.05 0.05 0.05 0.06 0.07 0.05 0.03 0.02 0.02 0.02 0.02 0.03 0.03
MSLP
1018.06 1017.94 1017.81 1017.70 1017.61 1017.59 1017.64 1017.80 1018.08 1018.46 1018.92 1019.42 1019.92 1020.37 1020.76 1021.05 1021.25 1021.39 1021.47 1021.54 1021.64 1021.77 1021.98 1022.25 1022.58 1022.97 1023.37 1023.77 1024.14 1024.44 1024.66 1024.77 1024.76 1024.63 1024.39 1024.05 1023.65 1023.22 1022.80 1022.42 1022.11 1021.89 1021.76
1018.51 1018.43 1018.33 1018.20 1018.07 1017.97 1017.94 1018.01 1018.20 1018.50 1018.90 1019.36 1019.83 1020.26 1020.61 1020.86 1021.01 1021.08 1021.10 1021.09 1021.12 1021.19 1021.34 1021.57 1021.87 1022.23 1022.62 1023.00 1023.36 1023.66 1023.87 1023.98 1023.98 1023.86 1023.62 1023.28 1022.86 1022.40 1021.93 1021.51 1021.15 1020.88 1020.72
1018.85 1018.83 1018.76 1018.64 1018.49 1018.34 1018.24 1018.22 1018.33 1018.56 1018.89 1019.30 1019.72 1020.12 1020.44 1020.65 1020.76 1020.78 1020.74 1020.67 1020.63 1020.65 1020.74 1020.91 1021.16 1021.46 1021.79 1022.14 1022.45 1022.73 1022.93 1023.05 1023.07 1022.97 1022.76 1022.45 1022.05 1021.59 1021.10 1020.64 1020.23 1019.92 1019.72
1019.05 1019.10 1019.09 1019.00 1018.84 1018.66 1018.51 1018.42 1018.46 1018.61 1018.88 1019.23 1019.60 1019.95 1020.23 1020.41 1020.48 1020.46 1020.38 1020.27 1020.18 1020.14 1020.16 1020.27 1020.44 1020.66 1020.91 1021.18 1021.43 1021.66 1021.85 1021.97 1022.01 1021.96 1021.81 1021.56 1021.21 1020.78 1020.30 1019.83 1019.39 1019.02 1018.76
1019.11 1019.25 1019.30 1019.26 1019.13 1018.94 1018.75 1018.62 1018.59 1018.67 1018.87 1019.15 1019.47 1019.76 1020.00 1020.14 1020.18 1020.12 1020.01 1019.87 1019.74 1019.64 1019.61 1019.63 1019.71 1019.83 1019.98 1020.15 1020.32 1020.49 1020.64 1020.76 1020.84 1020.85 1020.78 1020.60 1020.33 1019.96 1019.52 1019.05 1018.59 1018.18 1017.86
1019.09 1019.31 1019.44 1019.45 1019.36 1019.18 1018.98 1018.81 1018.73 1018.75 1018.88 1019.08 1019.33 1019.56 1019.75 1019.85 1019.85 1019.77 1019.64 1019.47 1019.31 1019.17 1019.07 1019.01 1018.99 1019.01 1019.04 1019.10 1019.17 1019.26 1019.37 1019.48 1019.59 1019.65 1019.66 1019.57 1019.38 1019.09 1018.70 1018.25 1017.79 1017.35 1016.98
1019.03 1019.33 1019.54 1019.61 1019.56 1019.41 1019.21 1019.02 1018.89 1018.86 1018.91 1019.04 1019.21 1019.38 1019.51 1019.56 1019.53 1019.43 1019.27 1019.09 1018.89 1018.71 1018.56 1018.42 1018.30 1018.21 1018.12 1018.06 1018.03 1018.03 1018.08 1018.17 1018.28 1018.39 1018.46 1018.45 1018.35 1018.13 1017.80 1017.39 1016.94 1016.49 1016.09
1018.99 1019.36 1019.63 1019.76 1019.76 1019.64 1019.45 1019.25 1019.09 1019.00 1018.99 1019.05 1019.15 1019.24 1019.30 1019.30 1019.23 1019.10 1018.93 1018.72 1018.50 1018.29 1018.07 1017.87 1017.66 1017.45 1017.25 1017.07 1016.93 1016.84 1016.83 1016.87 1016.97 1017.09 1017.19 1017.24 1017.20 1017.04 1016.77 1016.40 1015.98 1015.54 1015.13
1018.99 1019.41 1019.73 1019.91 1019.95 1019.86 1019.69 1019.49 1019.31 1019.18 1019.12 1019.11 1019.13 1019.15 1019.14 1019.09 1018.98 1018.81 1018.61 1018.38 1018.13 1017.88 1017.62 1017.35 1017.06 1016.76 1016.45 1016.17 1015.92 1015.74 1015.64 1015.62 1015.68 1015.78 1015.88 1015.94 1015.92 1015.81 1015.58 1015.25 1014.87 1014.46 1014.08
1019.05 1019.49 1019.84 1020.06 1020.13 1020.07 1019.92 1019.73 1019.54 1019.39 1019.28 1019.21 1019.17 1019.11 1019.04 1018.92 1018.75 1018.54 1018.30 1018.04 1017.77 1017.48 1017.18 1016.85 1016.49 1016.11 1015.72 1015.34 1015.00 1014.73 1014.54 1014.44 1014.42 1014.47 1014.53 1014.56 1014.54 1014.43 1014.22 1013.94 1013.60 1013.24 1012.91
1019.15 1019.60 1019.96 1020.19 1020.29 1020.25 1020.13 1019.96 1019.77 1019.61 1019.46 1019.34 1019.23 1019.11 1018.96 1018.77 1018.54 1018.28 1018.00 1017.70 1017.38 1017.06 1016.71 1016.33 1015.92 1015.48 1015.03 1014.58 1014.15 1013.79 1013.51 1013.33 1013.22 1013.18 1013.16 1013.14 1013.07 1012.94 1012.73 1012.47 1012.17 1011.87 1011.61
1019.26 1019.71 1020.07 1020.30 1020.41 1020.40 1020.31 1020.15 1019.98 1019.81 1019.64 1019.48 1019.30 1019.11 1018.89 1018.63 1018.33 1018.00 1017.66 1017.31 1016.95 1016.58 1016.19 1015.77 1015.32 1014.83 1014.33 1013.82 1013.34 1012.90 1012.54 1012.26 1012.06 1011.91 1011.80 1011.69 1011.56 1011.38 1011.16 1010.90 1010.64 1010.40 1010.21
1019.39 1019.82 1020.16 1020.39 1020.51 1020.52 1020.44 1020.31 1020.15 1019.97 1019.78 1019.58 1019.35 1019.09 1018.78 1018.44 1018.07 1017.67 1017.27 1016.86 1016.44 1016.03 1015.59 1015.13 1014.64 1014.12 1013.58 1013.03 1012.50 1012.01 1011.58 1011.22 1010.92 1010.68 1010.47 1010.26 1010.05 1009.81 1009.56 1009.30 1009.06 1008.87 1008.75
1019.52 1019.92 1020.24 1020.47 1020.58 1020.61 1020.55 1020.44 1020.28 1020.09 1019.88 1019.63 1019.34 1019.01 1018.62 1018.20 1017.75 1017.28 1016.80 1016.33 1015.86 1015.39 1014.91 1014.41 1013.88 1013.33 1012.75 1012.17 1011.61 1011.07 1010.59 1010.16 1009.79 1009.46 1009.16 1008.87 1008.59 1008.29 1008.00 1007.73 1007.50 1007.34 1007.27
1019.65 1020.02 1020.32 1020.53 1020.64 1020.67 1020.62 1020.52 1020.36 1020.15 1019.90 1019.60 1019.25 1018.84 1018.39 1017.89 1017.36 1016.82 1016.28 1015.74 1015.21 1014.68 1014.15 1013.60 1013.03 1012.44 1011.84 1011.23 1010.64 1010.07 1009.55 1009.08 1008.65 1008.27 1007.90 1007.55 1007.20 1006.86 1006.54 1006.25 1006.02 1005.87 1005.83
1019.78 1020.13 1020.40 1020.59 1020.70 1020.72 1020.67 1020.55 1020.37 1020.13 1019.84 1019.48 1019.06 1018.59 1018.06 1017.50 1016.90 1016.30 1015.70 1015.11 1014.52 1013.93 1013.34 1012.74 1012.13 1011.50 1010.86 1010.22 1009.60 1009.01 1008.46 1007.96 1007.51 1007.08 1006.68 1006.29 1005.91 1005.54 1005.20 1004.89 1004.66 1004.51 1004.47
1019.91 1020.22 1020.47 1020.64 1020.73 1020.73 1020.66 1020.52 1020.31 1020.02 1019.67 1019.25 1018.77 1018.23 1017.65 1017.03 1016.39 1015.74 1015.10 1014.46 1013.82 1013.18 1012.54 1011.88 1011.20 1010.52 1009.83 1009.15 1008.50 1007.89 1007.33 1006.82 1006.35 1005.92 1005.51 1005.12 1004.73 1004.35 1004.00 1003.68 1003.44 1003.28 1003.23
1020.01 1020.30 1020.52 1020.66 1020.72 1020.70 1020.59 1020.41 1020.14 1019.80 1019.39 1018.91 1018.37 1017.78 1017.15 1016.50 1015.83 1015.16 1014.49 1013.82 1013.15 1012.46 1011.76 1011.04 1010.30 1009.54 1008.80 1008.08 1007.39 1006.75 1006.18 1005.67 1005.21 1004.79 1004.40 1004.02 1003.65 1003.28 1002.94 1002.62 1002.36 1002.19 1002.11
1020.09 1020.35 1020.53 1020.63 1020.64 1020.58 1020.42 1020.19 1019.86 1019.46 1018.99 1018.45 1017.86 1017.23 1016.58 1015.92 1015.24 1014.57 1013.90 1013.21 1012.51 1011.79 1011.03 1010.24 1009.44 1008.62 1007.81 1007.03 1006.30 1005.64 1005.06 1004.55 1004.10 1003.71 1003.35 1003.00 1002.66 1002.32 1001.99 1001.69 1001.42 1001.23 1001.13
1020.13 1020.33 1020.46 1020.51 1020.48 1020.36 1020.15 1019.85 1019.47 1019.01 1018.48 1017.89 1017.27 1016.62 1015.96 1015.30 1014.64 1013.98 1013.31 1012.62 1011.90 1011.15 1010.35 1009.50 1008.63 1007.74 1006.87 1006.04 1005.27 1004.59 1003.99 1003.48 1003.06 1002.69 1002.36 1002.06 1001.75 1001.45 1001.15 1000.85 1000.59 1000.39 1000.26
1020.10 1020.24 1020.31 1020.30 1020.21 1020.03 1019.76 1019.40 1018.96 1018.45 1017.88 1017.27 1016.63 1015.97 1015.32 1014.67 1014.02 1013.38 1012.72 1012.03 1011.30 1010.52 1009.68 1008.79 1007.86 1006.92 1006.00 1005.12 1004.31 1003.60 1003.00 1002.49 1002.08 1001.74 1001.45 1001.18 1000.91 1000.64 1000.37 1000.10 999.85 999.65 999.51
1020.00 1020.07 1020.07 1019.99 1019.84 1019.60 1019.27 1018.87 1018.39 1017.84 1017.24 1016.61 1015.96 1015.31 1014.66 1014.03 1013.40 1012.77 1012.11 1011.42 1010.68 1009.88 1009.01 1008.08 1007.11 1006.12 1005.16 1004.25 1003.42 1002.69 1002.08 1001.58 1001.18 1000.86 1000.59 1000.35 1000.11 999.88 999.63 999.39 999.16 998.97 998.84
1019.84 1019.83 1019.74 1019.60 1019.38 1019.09 1018.72 1018.28 1017.77 1017.20 1016.59 1015.96 1015.31 1014.66 1014.02 1013.39 1012.77 1012.14 1011.48 1010.78 1010.02 1009.19 1008.29 1007.33 1006.34 1005.33 1004.35 1003.42 1002.58 1001.85 1001.24 1000.74 1000.34 1000.03 999.78 999.56 999.35 999.14 998.93 998.71 998.51 998.35 998.24
1019.59 1019.50 1019.34 1019.12 1018.85 1018.52 1018.12 1017.66 1017.15 1016.58 1015.97 1015.34 1014.70 1014.05 1013.41 1012.78 1012.14 1011.49 1010.80 1010.07 1009.29 1008.43 1007.51 1006.54 1005.53 1004.52 1003.53 1002.61 1001.78 1001.05 1000.44 999.95 999.55 999.25 999.00 998.79 998.60 998.42 998.23 998.05 997.89 997.76 997.68
1019.27 1019.09 1018.86 1018.58 1018.27 1017.91 1017.50 1017.04 1016.53 1015.98 1015.39 1014.77 1014.14 1013.49 1012.84 1012.18 1011.51 1010.82 1010.10 1009.33 1008.50 1007.62 1006.67 1005.69 1004.68 1003.68 1002.71 1001.80 1000.98 1000.27 999.67 999.18 998.78 998.48 998.23 998.03 997.85 997.69 997.54 997.40 997.28 997.20 997.18
1018.86 1018.60 1018.30 1017.98 1017.64 1017.27 1016.86 1016.42 1015.94 1015.41 1014.85 1014.25 1013.62 1012.97 1012.30 1011.61 1010.90 1010.15 1009.37 1008.55 1007.68 1006.76 1005.80 1004.81 1003.81 1002.83 1001.88 1001.00 1000.20 999.50 998.91 998.42 998.03 997.71 997.47 997.27 997.10 996.96 996.85 996.75 996.70 996.68 996.71
Thickness
5671 5672 5672 5672 5672 5669 5666 5662 5658 5653 5647 5640 5634 5628 5625 5622 5618 5615 5612 5608 5605 5601 5596 5594 5590 5585 5580 5578 5574 5568 5564 5561 5556 5551 5554 5561 5562 5564 5566 5564 5562 5561 5558
5666 5666 5665 5662 5660 5659 5657 5655 5651 5647 5642 5636 5630 5625 5621 5617 5614 5611 5608 5605 5601 5597 5592 5588 5585 5581 5576 5572 5567 5561 5556 5554 5548 5541 5538 5544 5554 5558 5560 5559 5557 5555 5551
5654 5655 5655 5652 5650 5649 5647 5647 5644 5640 5635 5630 5624 5618 5613 5610 5607 5605 5603 5601 5597 5593 5589 5586 5581 5576 5571 5567 5563 5557 5550 5546 5541 5535 5529 5525 5537 5541 5549 5548 5547 5545 5542
5648 5647 5646 5643 5641 5638 5637 5637 5635 5631 5627 5623 5618 5612 5607 5604 5604 5601 5598 5596 5593 5589 5586 5582 5577 5573 5567 5563 5559 5552 5546 5539 5535 5527 5524 5525 5523 5519 5529 5535 5534 5532 5530
5642 5640 5637 5635 5632 5629 5628 5627 5626 5623 5619 5615 5611 5606 5602 5601 5599 5595 5593 5590 5588 5585 5581 5577 5573 5568 5563 5559 5554 5548 5541 5535 5530 5524 5516 5512 5509 5504 5500 5519 5523 5519 5521
5635 5632 5630 5628 5625 5622 5620 5618 5617 5614 5611 5608 5604 5600 5597 5594 5591 5589 5586 5584 5581 5578 5575 5570 5566 5562 5557 5553 5548 5542 5535 5530 5524 5518 5511 5504 5499 5498 5493 5498 5509 5511 5514
5626 5623 5621 5618 5616 5613 5611 5610 5609 5607 5604 5601 5598 5595 5592 5588 5585 5583 5579 5577 5574 5571 5568 5563 5558 5554 5549 5545 5540 5533 5528 5522 5516 5510 5506 5501 5498 5491 5487 5486 5494 5496 5500
5618 5616 5613 5609 5605 5605 5603 5601 5600 5599 5597 5594 5592 5588 5585 5581 5578 5575 5572 5568 5565 5563 5560 5555 5550 5546 5541 5536 5530 5524 5518 5513 5507 5502 5496 5492 5489 5482 5477 5472 5469 5473 5483
5613 5608 5604 5601 5598 5596 5595 5592 5591 5590 5589 5586 5584 5581 5577 5574 5570 5567 5563 5559 5556 5553 5550 5545 5540 5535 5530 5524 5518 5512 5508 5502 5497 5491 5486 5480 5478 5471 5466 5460 5453 5448 5458
5605 5601 5596 5593 5591 5588 5586 5585 5583 5581 5579 5576 5573 5571 5567 5564 5560 5556 5552 5548 5544 5540 5536 5532 5527 5521 5516 5510 5504 5499 5494 5488 5484 5478 5472 5468 5463 5457 5452 5446 5441 5435 5435
5596 5591 5588 5585 5582 5580 5578 5576 5574 5571 5569 5566 5562 5559 5555 5552 5548 5543 5539 5535 5531 5527 5522 5517 5512 5506 5501 5494 5488 5483 5477 5471 5468 5461 5455 5453 5446 5441 5437 5431 5427 5423 5419
5588 5583 5580 5577 5574 5572 5569 5566 5563 5560 5557 5554 5550 5546 5543 5539 5535 5530 5526 5522 5517 5512 5506 5501 5495 5489 5483 5476 5469 5464 5459 5453 5449 5444 5437 5434 5427 5424 5420 5415 5413 5411 5407
5581 5575 5571 5568 5565 5562 5559 5556 5552 5549 5546 5542 5538 5534 5530 5525 5521 5517 5512 5507 5501 5496 5490 5483 5477 5471 5464 5457 5450 5443 5439 5434 5429 5424 5418 5415 5408 5407 5404 5400 5399 5398 5395
5572 5568 5563 5559 5555 5551 5548 5544 5541 5537 5534 5529 5525 5520 5516 5511 5506 5501 5496 5490 5484 5478 5472 5465 5458 5451 5444 5436 5429 5422 5418 5414 5410 5405 5400 5397 5393 5392 5389 5388 5387 5384 5382
5566 5562 5555 5549 5544 5540 5537 5533 5529 5525 5521 5516 5511 5507 5502 5496 5491 5485 5480 5474 5467 5460 5453 5446 5439 5431 5422 5415 5407 5403 5400 5396 5394 5391 5387 5384 5382 5380 5378 5376 5376 5372 5371
5557 5552 5546 5540 5535 5530 5526 5522 5518 5513 5508 5502 5498 5493 5487 5481 5475 5469 5463 5457 5450 5442 5434 5426 5418 5413 5405 5399 5395 5390 5388 5386 5383 5381 5378 5375 5373 5371 5372 5373 5373 5369 5364
5547 5541 5535 5529 5524 5519 5514 5509 5505 5500 5494 5489 5483 5478 5471 5465 5459 5453 5446 5438 5432 5425 5416 5408 5400 5396 5391 5385 5383 5380 5378 5377 5375 5372 5369 5368 5366 5364 5362 5362 5364 5365 5365
5536 5530 5523 5518 5513 5508 5502 5497 5492 5485 5480 5474 5468 5461 5455 5449 5443 5435 5428 5420 5413 5406 5399 5393 5386 5382 5380 5375 5373 5371 5370 5368 5366 5362 5360 5359 5358 5355 5353 5353 5353 5354 5354
5525 5517 5512 5506 5501 5495 5490 5484 5478 5472 5466 5460 5454 5446 5438 5432 5426 5418 5411 5403 5396 5391 5384 5379 5374 5371 5371 5366 5364 5363 5362 5360 5359 5356 5353 5351 5350 5350 5350 5349 5348 5349 5348
5511 5506 5500 5494 5488 5483 5477 5470 5464 5458 5452 5447 5440 5431 5422 5413 5407 5401 5394 5387 5379 5375 5372 5369 5364 5361 5361 5359 5358 5356 5355 5354 5353 5352 5349 5348 5347 5347 5346 5344 5344 5344 5343
5500 5495 5488 5481 5475 5470 5463 5456 5450 5444 5440 5433 5425 5416 5407 5397 5390 5385 5378 5371 5367 5364 5361 5360 5359 5355 5353 5353 5352 5350 5348 5347 5347 5347 5346 5343 5343 5343 5343 5342 5341 5341 5339
5488 5482 5474 5468 5463 5456 5448 5442 5438 5434 5428 5420 5411 5403 5393 5383 5375 5369 5365 5359 5354 5353 5353 5353 5353 5351 5349 5347 5346 5346 5345 5344 5342 5342 5341 5340 5340 5339 5339 5338 5338 5337 5336
5473 5467 5461 5455 5450 5443 5434 5428 5426 5420 5413 5405 5397 5389 5381 5372 5362 5355 5352 5350 5346 5343 5344 5344 5345 5347 5345 5343 5342 5342 5341 5340 5338 5337 5338 5338 5337 5336 5333 5333 5332 5331 5328
5459 5454 5447 5442 5438 5432 5423 5416 5411 5405 5397 5390 5383 5375 5367 5362 5355 5348 5343 5340 5338 5337 5337 5337 5339 5341 5341 5339 5338 5337 5336 5336 5334 5333 5333 5333 5332 5329 5327 5326 5323 5320 5318
5446 5440 5434 5429 5425 5419 5412 5404 5396 5388 5382 5375 5368 5361 5354 5348 5346 5343 5337 5334 5334 5329 5330 5332 5332 5333 5336 5336 5335 5335 5335 5334 5332 5331 5330 5326 5323 5321 5318 5317 5315 5313 5311
5433 5427 5422 5416 5412 5406 5400 5392 5383 5373 5365 5360 5355 5348 5343 5339 5337 5335 5337 5335 5331 5331 5329 5328 5328 5329 5330 5332 5333 5333 5332 5332 5331 5329 5326 5323 5320 5317 5314 5311 5309 5307 5305